ASA695 PANC-PAJN

Flight info

Callsign ASA695
Flight time 1h 5m
Altitude 33000
Route NOEND CUSHI
Aircraft MD83/M-SDFGIRWY/S

Departure

Time 2026-04-12 02:21
Airport Ted Stevens Anchorage International Airport (PANC)

Arrival

Time 2026-04-12 03:26
Airport Juneau International Airport (PAJN)
Time Latitude Longitude Altitude Speed Heading
2026-04-12 02:07 61.17304 -149.98507 111 ft 0 kts 139°
2026-04-12 02:13 61.17310 -149.98517 111 ft 4 kts 135°
2026-04-12 02:13 61.17323 -149.98557 110 ft 4 kts 99°
2026-04-12 02:14 61.17323 -149.98577 110 ft 4 kts 27°
2026-04-12 02:14 61.17299 -149.98593 111 ft 4 kts 20°
2026-04-12 02:14 61.17282 -149.98615 109 ft 4 kts 67°
2026-04-12 02:14 61.17283 -149.98643 109 ft 4 kts 107°
2026-04-12 02:15 61.17292 -149.98694 109 ft 4 kts 122°
2026-04-12 02:15 61.17300 -149.98714 109 ft 3 kts 187°
2026-04-12 02:15 61.17323 -149.98706 110 ft 4 kts 190°
2026-04-12 02:15 61.17334 -149.98702 110 ft 0 kts 190°
2026-04-12 02:17 61.17333 -149.98702 110 ft 1 kts 190°
2026-04-12 02:17 61.17312 -149.98712 110 ft 2 kts 197°
2026-04-12 02:17 61.17279 -149.98748 110 ft 9 kts 212°
2026-04-12 02:17 61.17209 -149.98863 113 ft 16 kts 227°
2026-04-12 02:18 61.17132 -149.99073 116 ft 20 kts 251°
2026-04-12 02:18 61.17125 -149.99357 122 ft 22 kts 269°
2026-04-12 02:18 61.17124 -149.99688 128 ft 24 kts 269°
2026-04-12 02:18 61.17124 -150.00027 134 ft 22 kts 271°
2026-04-12 02:19 61.17124 -150.00314 137 ft 20 kts 270°
2026-04-12 02:19 61.17124 -150.00590 138 ft 19 kts 270°
2026-04-12 02:19 61.17090 -150.00800 136 ft 13 kts 203°
2026-04-12 02:19 61.17002 -150.00808 136 ft 9 kts 169°
2026-04-12 02:20 61.16978 -150.00697 138 ft 13 kts 92°
2026-04-12 02:20 61.16978 -150.00069 134 ft 81 kts 90°
2026-04-12 02:20 61.16979 -149.98435 114 ft 144 kts 90°
2026-04-12 02:20 61.16989 -149.96064 336 ft 173 kts 89°
2026-04-12 02:21 61.16918 -149.93608 1145 ft 170 kts 110°
2026-04-12 02:21 61.16420 -149.91429 1919 ft 169 kts 125°
2026-04-12 02:21 61.15635 -149.89571 2516 ft 176 kts 142°
2026-04-12 02:21 61.14526 -149.88235 2929 ft 198 kts 162°
2026-04-12 02:22 61.13117 -149.87802 3313 ft 220 kts 184°
2026-04-12 02:22 61.11563 -149.88547 3790 ft 240 kts 204°
2026-04-12 02:22 61.10060 -149.90254 4388 ft 253 kts 211°
2026-04-12 02:22 61.08560 -149.92200 5145 ft 256 kts 211°
2026-04-12 02:23 61.07056 -149.94194 5926 ft 257 kts 210°
2026-04-12 02:23 61.05395 -149.95455 6623 ft 258 kts 182°
2026-04-12 02:23 61.03647 -149.94716 7282 ft 261 kts 151°
2026-04-12 02:23 61.02307 -149.92169 7880 ft 270 kts 123°
2026-04-12 02:24 61.01704 -149.88447 8510 ft 281 kts 95°
2026-04-12 02:24 61.01977 -149.84423 9193 ft 288 kts 75°
2026-04-12 02:24 61.02440 -149.80374 9851 ft 293 kts 82°
2026-04-12 02:24 61.02743 -149.76158 10243 ft 306 kts 84°
2026-04-12 02:25 61.03046 -149.71676 10432 ft 326 kts 83°
2026-04-12 02:25 61.03399 -149.66925 10645 ft 344 kts 83°
2026-04-12 02:25 61.03796 -149.61937 10812 ft 361 kts 82°
2026-04-12 02:25 61.04227 -149.56717 10951 ft 377 kts 82°
2026-04-12 02:26 61.04683 -149.51309 11316 ft 385 kts 82°
2026-04-12 02:26 61.05155 -149.45858 11876 ft 387 kts 82°
2026-04-12 02:26 61.05636 -149.40354 12377 ft 392 kts 82°
2026-04-12 02:26 61.06127 -149.34711 12996 ft 395 kts 82°
2026-04-12 02:27 61.08016 -149.12601 15116 ft 408 kts 83°
2026-04-12 02:27 61.09912 -148.89086 17120 ft 421 kts 85°
2026-04-12 02:27 61.11822 -148.64850 18958 ft 433 kts 84°
2026-04-12 02:27 61.12593 -148.36586 20706 ft 424 kts 116°
2026-04-12 02:28 61.05807 -147.97480 23420 ft 446 kts 111°
2026-04-12 02:28 60.98861 -147.50743 25499 ft 459 kts 113°
2026-04-12 02:28 60.90762 -147.00034 27385 ft 469 kts 112°
2026-04-12 02:28 60.82489 -146.49285 29460 ft 471 kts 112°
2026-04-12 02:29 60.75280 -146.05784 31406 ft 467 kts 112°
2026-04-12 02:29 60.74768 -146.02702 31583 ft 465 kts 113°
2026-04-12 02:29 60.74243 -145.99587 31813 ft 462 kts 114°
2026-04-12 02:29 60.73712 -145.96497 31954 ft 461 kts 114°
2026-04-12 02:30 60.72626 -145.90314 32011 ft 464 kts 114°
2026-04-12 02:30 60.71519 -145.84105 32233 ft 464 kts 114°
2026-04-12 02:31 60.70971 -145.81017 32436 ft 461 kts 114°
2026-04-12 02:31 60.70431 -145.77960 32618 ft 455 kts 114°
2026-04-12 02:31 60.69908 -145.74978 32734 ft 450 kts 114°
2026-04-12 02:31 60.69379 -145.71945 32812 ft 446 kts 114°
2026-04-12 02:32 60.68352 -145.66043 32902 ft 444 kts 114°
2026-04-12 02:32 60.67313 -145.60076 32937 ft 449 kts 114°
2026-04-12 02:33 60.66262 -145.54041 32953 ft 454 kts 114°
2026-04-12 02:33 60.65200 -145.47930 32975 ft 459 kts 114°
2026-04-12 02:34 60.64139 -145.41825 32995 ft 464 kts 114°
2026-04-12 02:34 60.62601 -145.32947 32957 ft 470 kts 114°
2026-04-12 02:35 60.58324 -145.08775 32960 ft 474 kts 114°
2026-04-12 02:35 60.50792 -144.67430 32943 ft 471 kts 114°
2026-04-12 02:36 60.44518 -144.33169 32950 ft 472 kts 115°
2026-04-12 02:36 60.42150 -144.20779 32941 ft 472 kts 115°
2026-04-12 02:37 60.40169 -144.10387 32946 ft 472 kts 115°
2026-04-12 02:37 60.37810 -143.97973 32934 ft 474 kts 114°
2026-04-12 02:38 60.35451 -143.85492 32942 ft 475 kts 114°
2026-04-12 02:38 60.33090 -143.73027 32944 ft 476 kts 115°
2026-04-12 02:39 60.30738 -143.60678 32941 ft 474 kts 115°
2026-04-12 02:39 60.28304 -143.48354 32946 ft 473 kts 115°
2026-04-12 02:40 60.25854 -143.36062 32948 ft 474 kts 115°
2026-04-12 02:40 60.23417 -143.23739 32947 ft 474 kts 115°
2026-04-12 02:41 60.20985 -143.11399 32949 ft 474 kts 115°
2026-04-12 02:41 60.18907 -142.98789 32947 ft 476 kts 112°
2026-04-12 02:42 60.16762 -142.86375 32948 ft 476 kts 113°
2026-04-12 02:43 60.13508 -142.67536 32951 ft 476 kts 112°
2026-04-12 02:43 60.11383 -142.54958 32947 ft 477 kts 112°
2026-04-12 02:44 60.09256 -142.42372 32948 ft 477 kts 112°
2026-04-12 02:44 60.07118 -142.29792 32953 ft 477 kts 112°
2026-04-12 02:45 60.04915 -142.17237 32924 ft 477 kts 112°
2026-04-12 02:45 60.02665 -142.04711 32943 ft 478 kts 112°
2026-04-12 02:46 60.00438 -141.92168 32945 ft 479 kts 112°
2026-04-12 02:46 59.98238 -141.79708 32947 ft 477 kts 112°
2026-04-12 02:47 59.96031 -141.67232 32948 ft 475 kts 112°
2026-04-12 02:47 59.93856 -141.54978 32958 ft 471 kts 112°
2026-04-12 02:48 59.91611 -141.42628 32950 ft 477 kts 112°
2026-04-12 02:48 59.89298 -141.30202 32949 ft 478 kts 112°
2026-04-12 02:49 59.87001 -141.17803 32957 ft 477 kts 112°
2026-04-12 02:49 59.84719 -141.05432 32957 ft 476 kts 112°
2026-04-12 02:50 59.82440 -140.93092 32953 ft 476 kts 112°
2026-04-12 02:50 59.80145 -140.80723 32950 ft 478 kts 112°
2026-04-12 02:51 59.77831 -140.68323 32960 ft 479 kts 112°
2026-04-12 02:51 59.75449 -140.55985 32968 ft 477 kts 112°
2026-04-12 02:52 59.73082 -140.43778 32968 ft 476 kts 112°
2026-04-12 02:52 59.70704 -140.31433 32966 ft 477 kts 112°
2026-04-12 02:53 59.68348 -140.19215 32959 ft 479 kts 112°
2026-04-12 02:53 59.64782 -140.00693 32956 ft 479 kts 112°
2026-04-12 02:54 59.62379 -139.88422 32960 ft 478 kts 113°
2026-04-12 02:54 59.59920 -139.76247 32967 ft 478 kts 113°
2026-04-12 02:55 59.57458 -139.64035 32938 ft 479 kts 112°
2026-04-12 02:55 59.55003 -139.51788 32953 ft 481 kts 112°
2026-04-12 02:56 59.52549 -139.39502 32951 ft 481 kts 112°
2026-04-12 02:56 59.50089 -139.27246 32962 ft 480 kts 112°
2026-04-12 02:57 59.47632 -139.15116 32955 ft 480 kts 112°
2026-04-12 02:57 59.45095 -139.02980 32948 ft 480 kts 112°
2026-04-12 02:58 59.42547 -138.90838 32969 ft 481 kts 112°
2026-04-12 02:58 59.40016 -138.78659 32957 ft 482 kts 112°
2026-04-12 02:59 59.37486 -138.66483 32961 ft 481 kts 112°
2026-04-12 02:59 59.34959 -138.54358 32970 ft 480 kts 112°
2026-04-12 03:00 59.32413 -138.42229 32966 ft 481 kts 112°
2026-04-12 03:00 59.29804 -138.30148 32962 ft 482 kts 112°
2026-04-12 03:01 59.27183 -138.18083 32971 ft 482 kts 112°
2026-04-12 03:01 59.24582 -138.06072 32977 ft 483 kts 113°
2026-04-12 03:02 59.21360 -137.94672 32976 ft 480 kts 129°
2026-04-12 03:02 59.17051 -137.84713 32971 ft 480 kts 131°
2026-04-12 03:03 59.12767 -137.74703 32966 ft 481 kts 130°
2026-04-12 03:03 59.08558 -137.64568 32973 ft 482 kts 129°
2026-04-12 03:04 59.04391 -137.54345 32970 ft 482 kts 129°
2026-04-12 03:04 59.00213 -137.44163 32967 ft 482 kts 129°
2026-04-12 03:05 58.96025 -137.34030 32970 ft 481 kts 129°
2026-04-12 03:05 58.91823 -137.24060 32970 ft 480 kts 130°
2026-04-12 03:06 58.87593 -137.14025 32959 ft 482 kts 130°
2026-04-12 03:06 58.85425 -137.08934 32493 ft 490 kts 130°
2026-04-12 03:06 58.83292 -137.03900 31890 ft 488 kts 129°
2026-04-12 03:07 58.81165 -136.98818 31256 ft 485 kts 129°
2026-04-12 03:07 58.79050 -136.93807 30686 ft 480 kts 130°
2026-04-12 03:07 58.76928 -136.88841 30147 ft 479 kts 129°
2026-04-12 03:07 58.74830 -136.83858 29479 ft 478 kts 129°
2026-04-12 03:08 58.72742 -136.78898 28811 ft 477 kts 129°
2026-04-12 03:08 58.70658 -136.73984 28134 ft 471 kts 130°
2026-04-12 03:08 58.68571 -136.69178 27483 ft 465 kts 130°
2026-04-12 03:08 58.66487 -136.64460 26817 ft 460 kts 131°
2026-04-12 03:09 58.64427 -136.59778 26167 ft 455 kts 130°
2026-04-12 03:09 58.62414 -136.55138 25510 ft 451 kts 130°
2026-04-12 03:09 58.60418 -136.50500 24870 ft 448 kts 130°
2026-04-12 03:09 58.58453 -136.45899 24244 ft 444 kts 130°
2026-04-12 03:10 58.56504 -136.41332 23603 ft 441 kts 130°
2026-04-12 03:10 58.54569 -136.36802 22877 ft 437 kts 130°
2026-04-12 03:10 58.52654 -136.32344 22212 ft 431 kts 130°
2026-04-12 03:10 58.50861 -136.27792 21614 ft 424 kts 124°
2026-04-12 03:11 58.49279 -136.23093 21032 ft 417 kts 121°
2026-04-12 03:11 58.47806 -136.18435 20444 ft 411 kts 121°
2026-04-12 03:11 58.46338 -136.13708 19817 ft 407 kts 120°
2026-04-12 03:11 58.44897 -136.09092 19181 ft 403 kts 120°
2026-04-12 03:12 58.43479 -136.04592 18549 ft 399 kts 121°
2026-04-12 03:12 58.42025 -136.00019 17867 ft 396 kts 121°
2026-04-12 03:12 58.40597 -135.95563 17206 ft 391 kts 121°
2026-04-12 03:12 58.39182 -135.91176 16588 ft 385 kts 121°
2026-04-12 03:13 58.37787 -135.86866 16021 ft 379 kts 121°
2026-04-12 03:13 58.36429 -135.82681 15492 ft 372 kts 121°
2026-04-12 03:13 58.35071 -135.78495 14940 ft 371 kts 120°
2026-04-12 03:13 58.33712 -135.74308 14409 ft 372 kts 120°
2026-04-12 03:14 58.32352 -135.70121 13854 ft 371 kts 120°
2026-04-12 03:14 58.30999 -135.65954 13242 ft 368 kts 120°
2026-04-12 03:14 58.29660 -135.61834 12644 ft 364 kts 121°
2026-04-12 03:14 58.28315 -135.57793 12084 ft 360 kts 121°
2026-04-12 03:15 58.26965 -135.53798 11544 ft 357 kts 122°
2026-04-12 03:15 58.25637 -135.49842 10997 ft 355 kts 121°
2026-04-12 03:15 58.24328 -135.45889 10501 ft 350 kts 121°
2026-04-12 03:15 58.23092 -135.42128 10332 ft 322 kts 121°
2026-04-12 03:16 58.21954 -135.38655 10181 ft 298 kts 121°
2026-04-12 03:16 58.20894 -135.35416 10040 ft 281 kts 121°
2026-04-12 03:16 58.19896 -135.32328 9941 ft 271 kts 117°
2026-04-12 03:16 58.19378 -135.28890 9735 ft 277 kts 88°
2026-04-12 03:17 58.19805 -135.25392 9409 ft 274 kts 59°
2026-04-12 03:17 58.21037 -135.22729 8873 ft 274 kts 31°
2026-04-12 03:17 58.22711 -135.21077 8404 ft 270 kts 22°
2026-04-12 03:17 58.24425 -135.19677 7988 ft 266 kts 22°
2026-04-12 03:18 58.26135 -135.18309 7351 ft 266 kts 22°
2026-04-12 03:18 58.27823 -135.16960 6830 ft 259 kts 22°
2026-04-12 03:18 58.29421 -135.15652 6593 ft 242 kts 23°
2026-04-12 03:18 58.30913 -135.14358 6300 ft 229 kts 27°
2026-04-12 03:19 58.32270 -135.12870 5946 ft 221 kts 32°
2026-04-12 03:19 58.33532 -135.11333 5743 ft 209 kts 33°
2026-04-12 03:19 58.34731 -135.09841 5666 ft 204 kts 33°
2026-04-12 03:19 58.35810 -135.08084 5634 ft 207 kts 58°
2026-04-12 03:20 58.36182 -135.05498 5607 ft 200 kts 88°
2026-04-12 03:20 58.36175 -135.02919 5438 ft 190 kts 89°
2026-04-12 03:20 58.36174 -135.00436 5176 ft 184 kts 88°
2026-04-12 03:20 58.36163 -134.98016 4863 ft 181 kts 89°
2026-04-12 03:21 58.36145 -134.96441 4655 ft 179 kts 90°
2026-04-12 03:21 58.36109 -134.94146 4369 ft 166 kts 90°
2026-04-12 03:21 58.36078 -134.92058 4083 ft 150 kts 90°
2026-04-12 03:21 58.36043 -134.89533 3794 ft 139 kts 89°
2026-04-12 03:22 58.36029 -134.88257 3765 ft 148 kts 89°
2026-04-12 03:22 58.36012 -134.86289 3594 ft 153 kts 89°
2026-04-12 03:22 58.35998 -134.84264 3193 ft 152 kts 89°
2026-04-12 03:22 58.35985 -134.82289 2838 ft 147 kts 89°
2026-04-12 03:23 58.35973 -134.80358 2539 ft 145 kts 88°
2026-04-12 03:23 58.35961 -134.78469 2277 ft 142 kts 88°
2026-04-12 03:23 58.35950 -134.76624 2056 ft 141 kts 88°
2026-04-12 03:23 58.35939 -134.74766 1879 ft 141 kts 88°
2026-04-12 03:24 58.35933 -134.72891 1673 ft 142 kts 88°
2026-04-12 03:24 58.35926 -134.71014 1439 ft 143 kts 88°
2026-04-12 03:24 58.35925 -134.69132 1213 ft 140 kts 88°
2026-04-12 03:24 58.35947 -134.67290 1024 ft 140 kts 87°
2026-04-12 03:25 58.35943 -134.65455 771 ft 139 kts 89°
2026-04-12 03:25 58.35935 -134.63636 504 ft 136 kts 88°
2026-04-12 03:25 58.35935 -134.61859 301 ft 134 kts 88°
2026-04-12 03:25 58.35836 -134.60111 107 ft 132 kts 101°
2026-04-12 03:26 58.35614 -134.58486 34 ft 117 kts 102°
2026-04-12 03:26 58.35465 -134.57405 36 ft 45 kts 104°
2026-04-12 03:26 58.35402 -134.56956 35 ft 30 kts 105°
2026-04-12 03:26 58.35409 -134.56698 34 ft 17 kts 33°
2026-04-12 03:27 58.35485 -134.56754 35 ft 12 kts 291°
2026-04-12 03:27 58.35507 -134.56909 35 ft 13 kts 285°
2026-04-12 03:27 58.35530 -134.57073 35 ft 13 kts 285°
2026-04-12 03:27 58.35554 -134.57245 35 ft 14 kts 284°
2026-04-12 03:28 58.35581 -134.57443 35 ft 17 kts 285°
2026-04-12 03:28 58.35611 -134.57658 35 ft 17 kts 284°
2026-04-12 03:28 58.35642 -134.57882 35 ft 18 kts 284°
2026-04-12 03:28 58.35674 -134.58115 34 ft 18 kts 284°
2026-04-12 03:29 58.35705 -134.58281 35 ft 10 kts 319°
2026-04-12 03:29 58.35764 -134.58332 35 ft 9 kts 308°
2026-04-12 03:29 58.35786 -134.58448 35 ft 9 kts 285°
2026-04-12 03:29 58.35821 -134.58537 35 ft 8 kts 335°
2026-04-12 03:30 58.35871 -134.58553 35 ft 4 kts 39°
2026-04-12 03:30 58.35876 -134.58501 35 ft 4 kts 95°
2026-04-12 03:30 58.35874 -134.58480 35 ft 0 kts 99°